Time,TemperatureF,DewpointF,PressureIn,WindDirection,WindDirectionDegrees,WindSpeedMPH,WindSpeedGustMPH,Humidity,HourlyPrecipIn,Conditions,Clouds,dailyrainin,SoftwareType,DateUTC
2014-04-18 00:00:00,57.7,37.0,29.99,North,0,4.0,4.9,46,-99.99,,,-99.99,meteobridge,2014-04-18 07:00:00,
2014-04-18 00:02:00,57.7,37.0,29.99,North,0,0.9,4.9,46,-99.99,,,-99.99,meteobridge,2014-04-18 07:02:00,
2014-04-18 00:03:00,57.7,37.0,29.99,North,0,4.0,4.9,46,-99.99,,,-99.99,meteobridge,2014-04-18 07:03:00,
2014-04-18 00:04:00,57.7,36.5,29.99,North,0,0.9,6.9,45,-99.99,,,-99.99,meteobridge,2014-04-18 07:04:00,
2014-04-18 00:05:00,57.7,36.5,29.99,North,0,2.9,6.9,45,-99.99,,,-99.99,meteobridge,2014-04-18 07:05:00,
2014-04-18 00:07:00,57.7,36.5,29.99,North,0,2.0,6.9,45,-99.99,,,-99.99,meteobridge,2014-04-18 07:07:00,
2014-04-18 00:08:00,57.7,36.5,29.99,NE,56,2.9,4.9,45,-99.99,,,-99.99,meteobridge,2014-04-18 07:08:00,
2014-04-18 00:10:00,57.7,36.5,29.99,North,0,0.9,6.9,45,-99.99,,,-99.99,meteobridge,2014-04-18 07:10:00,
2014-04-18 00:11:00,57.6,36.3,29.99,North,0,0.9,6.9,45,-99.99,,,-99.99,meteobridge,2014-04-18 07:11:00,
2014-04-18 00:12:00,57.6,36.3,29.99,North,0,2.0,4.9,45,-99.99,,,-99.99,meteobridge,2014-04-18 07:12:00,
2014-04-18 00:14:00,57.6,36.3,29.99,SSW,209,2.9,4.9,45,-99.99,,,-99.99,meteobridge,2014-04-18 07:14:00,
2014-04-18 00:15:00,57.6,36.3,29.99,SSW,212,2.0,4.9,45,-99.99,,,-99.99,meteobridge,2014-04-18 07:15:00,
2014-04-18 00:16:00,57.6,36.9,29.99,North,0,2.9,4.9,46,-99.99,,,-99.99,meteobridge,2014-04-18 07:16:00,
2014-04-18 00:17:00,57.6,36.3,29.99,North,0,0.9,6.0,45,-99.99,,,-99.99,meteobridge,2014-04-18 07:17:00,
2014-04-18 00:19:00,57.6,36.3,29.99,North,0,2.0,4.0,45,-99.99,,,-99.99,meteobridge,2014-04-18 07:19:00,
2014-04-18 00:21:00,57.6,36.3,29.99,NW,305,2.0,4.0,45,-99.99,,,-99.99,meteobridge,2014-04-18 07:21:00,
2014-04-18 00:22:00,57.4,36.1,29.99,North,0,0.0,4.0,45,-99.99,,,-99.99,meteobridge,2014-04-18 07:22:00,
2014-04-18 00:23:00,57.4,36.1,29.99,North,0,2.0,4.0,45,-99.99,,,-99.99,meteobridge,2014-04-18 07:23:00,
2014-04-18 00:24:00,57.4,36.1,29.99,North,0,2.0,2.9,45,-99.99,,,-99.99,meteobridge,2014-04-18 07:24:00,
2014-04-18 00:25:00,57.4,36.1,29.99,North,0,2.0,2.9,45,-99.99,,,-99.99,meteobridge,2014-04-18 07:25:00,
2014-04-18 00:27:00,57.4,36.1,29.99,North,0,2.9,6.0,45,-99.99,,,-99.99,meteobridge,2014-04-18 07:27:00,
2014-04-18 00:28:00,57.2,36.0,29.99,North,0,2.0,6.0,45,-99.99,,,-99.99,meteobridge,2014-04-18 07:28:00,
2014-04-18 00:30:00,57.4,36.1,29.99,North,0,2.0,2.9,45,-99.99,,,-99.99,meteobridge,2014-04-18 07:30:00,
2014-04-18 00:33:00,57.2,36.0,29.99,NNW,344,0.9,4.9,45,-99.99,,,-99.99,meteobridge,2014-04-18 07:33:00,
2014-04-18 00:34:00,57.2,36.0,29.99,North,0,2.0,4.0,45,-99.99,,,-99.99,meteobridge,2014-04-18 07:34:00,
2014-04-18 00:36:00,57.0,36.0,29.99,West,281,2.0,2.9,45,-99.99,,,-99.99,meteobridge,2014-04-18 07:36:00,
2014-04-18 00:38:00,57.0,36.0,29.98,NW,308,2.0,4.9,45,-99.99,,,-99.99,meteobridge,2014-04-18 07:38:00,
2014-04-18 00:39:00,57.0,36.0,29.98,SW,224,2.0,4.9,45,-99.99,,,-99.99,meteobridge,2014-04-18 07:39:00,
2014-04-18 00:40:00,57.0,36.5,29.98,North,0,2.9,4.9,46,-99.99,,,-99.99,meteobridge,2014-04-18 07:40:00,
2014-04-18 00:42:00,57.0,36.5,29.98,SW,233,2.0,2.9,46,-99.99,,,-99.99,meteobridge,2014-04-18 07:42:00,
2014-04-18 00:43:00,57.0,36.5,29.98,WNW,282,0.9,4.0,46,-99.99,,,-99.99,meteobridge,2014-04-18 07:43:00,
2014-04-18 00:44:00,57.0,36.5,29.98,North,0,2.9,4.0,46,-99.99,,,-99.99,meteobridge,2014-04-18 07:44:00,
2014-04-18 00:45:00,57.0,36.5,29.98,SSW,205,2.0,2.9,46,-99.99,,,-99.99,meteobridge,2014-04-18 07:45:00,
2014-04-18 00:47:00,56.8,36.9,29.98,North,0,2.0,2.9,47,-99.99,,,-99.99,meteobridge,2014-04-18 07:47:00,
2014-04-18 00:49:00,56.8,36.9,29.98,North,0,4.0,4.9,47,-99.99,,,-99.99,meteobridge,2014-04-18 07:49:00,
2014-04-18 00:50:00,56.8,36.9,29.98,WNW,292,2.9,4.9,47,-99.99,,,-99.99,meteobridge,2014-04-18 07:50:00,
2014-04-18 00:51:00,56.7,36.7,29.98,North,0,2.0,4.9,47,-99.99,,,-99.99,meteobridge,2014-04-18 07:51:00,
2014-04-18 00:52:00,56.7,36.7,29.98,North,0,0.9,4.9,47,-99.99,,,-99.99,meteobridge,2014-04-18 07:52:00,
2014-04-18 00:55:00,56.7,36.7,29.98,West,275,2.0,2.0,47,-99.99,,,-99.99,meteobridge,2014-04-18 07:55:00,
2014-04-18 00:56:00,56.7,36.7,29.98,NNW,343,2.9,2.9,47,-99.99,,,-99.99,meteobridge,2014-04-18 07:56:00,
2014-04-18 00:57:00,56.5,36.5,29.98,North,0,4.9,4.9,47,-99.99,,,-99.99,meteobridge,2014-04-18 07:57:00,
2014-04-18 00:58:00,56.5,36.5,29.98,WSW,244,2.0,4.9,47,-99.99,,,-99.99,meteobridge,2014-04-18 07:58:00,
2014-04-18 01:00:00,56.3,37.4,29.98,North,0,4.0,6.0,49,-99.99,,,-99.99,meteobridge,2014-04-18 08:00:00,
2014-04-18 01:01:00,56.3,37.4,29.98,North,0,2.9,6.0,49,-99.99,,,-99.99,meteobridge,2014-04-18 08:01:00,
2014-04-18 01:02:00,56.3,37.4,29.98,North,0,2.9,4.9,49,-99.99,,,-99.99,meteobridge,2014-04-18 08:02:00,
2014-04-18 01:04:00,56.5,37.0,29.98,North,0,2.0,2.9,48,-99.99,,,-99.99,meteobridge,2014-04-18 08:04:00,
2014-04-18 01:06:00,56.1,36.7,29.98,North,354,2.9,2.9,48,-99.99,,,-99.99,meteobridge,2014-04-18 08:06:00,
2014-04-18 01:07:00,56.1,36.7,29.98,North,0,2.0,4.9,48,-99.99,,,-99.99,meteobridge,2014-04-18 08:07:00,
2014-04-18 01:09:00,56.1,36.7,29.98,North,0,2.0,6.0,48,-99.99,,,-99.99,meteobridge,2014-04-18 08:09:00,
2014-04-18 01:11:00,56.1,36.1,29.98,WSW,251,2.9,4.9,47,-99.99,,,-99.99,meteobridge,2014-04-18 08:11:00,
2014-04-18 01:12:00,55.9,36.0,29.98,North,0,4.0,4.9,47,-99.99,,,-99.99,meteobridge,2014-04-18 08:12:00,
2014-04-18 01:14:00,55.9,36.0,29.98,ENE,68,2.0,6.9,47,-99.99,,,-99.99,meteobridge,2014-04-18 08:14:00,
2014-04-18 01:15:00,55.9,36.0,29.98,East,89,2.0,6.9,47,-99.99,,,-99.99,meteobridge,2014-04-18 08:15:00,
2014-04-18 01:17:00,55.9,36.0,29.98,NW,309,4.0,4.0,47,-99.99,,,-99.99,meteobridge,2014-04-18 08:17:00,
2014-04-18 01:18:00,55.8,35.8,29.98,North,0,2.9,4.0,47,-99.99,,,-99.99,meteobridge,2014-04-18 08:18:00,
2014-04-18 01:20:00,55.8,35.8,29.98,North,0,2.0,6.0,47,-99.99,,,-99.99,meteobridge,2014-04-18 08:20:00,
2014-04-18 01:22:00,55.6,35.6,29.98,North,0,0.9,4.9,47,-99.99,,,-99.99,meteobridge,2014-04-18 08:22:00,
2014-04-18 01:23:00,55.6,35.6,29.98,North,0,4.0,6.0,47,-99.99,,,-99.99,meteobridge,2014-04-18 08:23:00,
2014-04-18 01:24:00,55.6,35.6,29.98,North,0,2.0,6.0,47,-99.99,,,-99.99,meteobridge,2014-04-18 08:24:00,
2014-04-18 01:25:00,55.6,35.6,29.98,North,0,2.9,4.9,47,-99.99,,,-99.99,meteobridge,2014-04-18 08:25:00,
2014-04-18 01:27:00,55.6,35.6,29.98,North,0,4.9,6.0,47,-99.99,,,-99.99,meteobridge,2014-04-18 08:27:00,
2014-04-18 01:28:00,55.6,36.1,29.98,North,359,4.9,6.9,48,-99.99,,,-99.99,meteobridge,2014-04-18 08:28:00,
2014-04-18 01:30:00,55.6,36.1,29.98,North,0,2.0,6.0,48,-99.99,,,-99.99,meteobridge,2014-04-18 08:30:00,
2014-04-18 01:31:00,55.6,36.7,29.98,North,0,2.0,4.9,49,-99.99,,,-99.99,meteobridge,2014-04-18 08:31:00,
2014-04-18 01:32:00,55.6,36.7,29.98,WNW,284,2.0,4.9,49,-99.99,,,-99.99,meteobridge,2014-04-18 08:32:00,
2014-04-18 01:34:00,55.6,36.7,29.98,North,0,2.0,2.9,49,-99.99,,,-99.99,meteobridge,2014-04-18 08:34:00,
2014-04-18 01:35:00,55.6,36.7,29.98,SSW,213,0.9,2.9,49,-99.99,,,-99.99,meteobridge,2014-04-18 08:35:00,
2014-04-18 01:36:00,55.4,36.5,30.00,WSW,240,0.9,4.0,49,-99.99,,,-99.99,meteobridge,2014-04-18 08:36:00,
2014-04-18 01:37:00,55.2,36.3,30.00,WNW,284,2.0,4.0,49,-99.99,,,-99.99,meteobridge,2014-04-18 08:37:00,
2014-04-18 01:38:00,55.4,36.5,30.00,ESE,109,2.0,4.0,49,-99.99,,,-99.99,meteobridge,2014-04-18 08:38:00,
2014-04-18 01:39:00,55.2,36.3,30.00,West,267,0.9,6.0,49,-99.99,,,-99.99,meteobridge,2014-04-18 08:39:00,
2014-04-18 01:42:00,55.2,36.3,30.00,North,0,2.0,4.9,49,-99.99,,,-99.99,meteobridge,2014-04-18 08:42:00,
2014-04-18 01:43:00,55.2,36.3,30.00,North,354,2.9,2.9,49,-99.99,,,-99.99,meteobridge,2014-04-18 08:43:00,
2014-04-18 01:44:00,55.2,36.3,30.00,North,0,2.9,2.9,49,-99.99,,,-99.99,meteobridge,2014-04-18 08:44:00,
2014-04-18 01:45:00,55.2,36.3,30.00,North,0,4.9,4.9,49,-99.99,,,-99.99,meteobridge,2014-04-18 08:45:00,
2014-04-18 01:47:00,55.2,36.3,30.00,SSW,205,2.0,4.0,49,-99.99,,,-99.99,meteobridge,2014-04-18 08:47:00,
2014-04-18 01:48:00,55.2,36.3,30.00,North,0,2.0,4.0,49,-99.99,,,-99.99,meteobridge,2014-04-18 08:48:00,
2014-04-18 01:49:00,55.2,36.3,30.00,North,0,0.0,4.0,49,-99.99,,,-99.99,meteobridge,2014-04-18 08:49:00,
2014-04-18 01:50:00,55.2,36.3,30.00,North,0,0.9,2.9,49,-99.99,,,-99.99,meteobridge,2014-04-18 08:50:00,
2014-04-18 01:53:00,55.0,36.7,30.00,North,0,0.0,0.9,50,-99.99,,,-99.99,meteobridge,2014-04-18 08:53:00,
2014-04-18 01:54:00,55.0,36.7,30.00,North,0,0.0,0.9,50,-99.99,,,-99.99,meteobridge,2014-04-18 08:54:00,
2014-04-18 01:55:00,55.0,36.7,30.00,North,0,0.9,2.0,50,-99.99,,,-99.99,meteobridge,2014-04-18 08:55:00,
2014-04-18 01:56:00,54.9,36.5,30.00,North,0,0.0,2.0,50,-99.99,,,-99.99,meteobridge,2014-04-18 08:56:00,
2014-04-18 01:57:00,54.9,36.5,30.00,North,0,0.0,0.0,50,-99.99,,,-99.99,meteobridge,2014-04-18 08:57:00,
2014-04-18 01:59:00,54.9,36.5,30.00,North,0,0.0,0.0,50,-99.99,,,-99.99,meteobridge,2014-04-18 08:59:00,
2014-04-18 02:00:00,54.9,36.5,30.00,North,0,0.0,0.0,50,-99.99,,,-99.99,meteobridge,2014-04-18 09:00:00,
2014-04-18 02:02:00,54.9,36.5,30.00,North,0,0.0,0.0,50,-99.99,,,-99.99,meteobridge,2014-04-18 09:02:00,
2014-04-18 02:03:00,54.7,36.3,30.00,North,0,0.0,0.0,50,-99.99,,,-99.99,meteobridge,2014-04-18 09:03:00,
2014-04-18 02:05:00,54.7,36.3,30.00,North,0,0.0,0.0,50,-99.99,,,-99.99,meteobridge,2014-04-18 09:05:00,
2014-04-18 02:07:00,54.7,37.4,30.01,North,0,0.0,0.0,52,-99.99,,,-99.99,meteobridge,2014-04-18 09:07:00,
2014-04-18 02:08:00,54.7,37.4,30.01,North,0,0.0,0.0,52,-99.99,,,-99.99,meteobridge,2014-04-18 09:08:00,
2014-04-18 02:10:00,54.7,36.9,30.01,North,0,0.9,0.9,51,-99.99,,,-99.99,meteobridge,2014-04-18 09:10:00,
2014-04-18 02:11:00,54.7,36.9,30.01,North,0,2.0,2.0,51,-99.99,,,-99.99,meteobridge,2014-04-18 09:11:00,
2014-04-18 02:13:00,54.7,37.4,30.01,North,0,0.0,0.9,52,-99.99,,,-99.99,meteobridge,2014-04-18 09:13:00,
2014-04-18 02:15:00,54.5,37.2,30.01,SSE,154,0.0,2.9,52,-99.99,,,-99.99,meteobridge,2014-04-18 09:15:00,
2014-04-18 02:16:00,54.5,36.7,30.01,SSE,155,0.0,2.9,51,-99.99,,,-99.99,meteobridge,2014-04-18 09:16:00,
2014-04-18 02:18:00,54.5,36.3,30.01,SSE,155,0.0,0.0,50,-99.99,,,-99.99,meteobridge,2014-04-18 09:18:00,
2014-04-18 02:20:00,54.3,36.1,30.01,SSE,154,0.0,0.0,50,-99.99,,,-99.99,meteobridge,2014-04-18 09:20:00,
2014-04-18 02:21:00,54.3,35.6,30.01,South,176,0.0,0.0,49,-99.99,,,-99.99,meteobridge,2014-04-18 09:21:00,
2014-04-18 02:22:00,54.3,36.1,30.01,West,263,0.0,0.0,50,-99.99,,,-99.99,meteobridge,2014-04-18 09:22:00,
2014-04-18 02:23:00,54.3,36.1,30.01,North,0,0.9,0.9,50,-99.99,,,-99.99,meteobridge,2014-04-18 09:23:00,
2014-04-18 02:24:00,54.3,36.1,30.01,NNW,330,0.0,0.9,50,-99.99,,,-99.99,meteobridge,2014-04-18 09:24:00,
2014-04-18 02:26:00,54.1,36.9,30.01,NE,42,2.9,2.9,52,-99.99,,,-99.99,meteobridge,2014-04-18 09:26:00,
2014-04-18 02:27:00,54.1,36.9,30.01,North,0,6.0,6.0,52,-99.99,,,-99.99,meteobridge,2014-04-18 09:27:00,
2014-04-18 02:28:00,54.1,37.9,30.01,NNW,347,4.9,6.9,54,-99.99,,,-99.99,meteobridge,2014-04-18 09:28:00,
2014-04-18 02:31:00,54.0,38.1,30.01,NNW,343,0.9,2.9,55,-99.99,,,-99.99,meteobridge,2014-04-18 09:31:00,
2014-04-18 02:32:00,54.0,38.1,30.01,NNW,343,2.0,2.0,55,-99.99,,,-99.99,meteobridge,2014-04-18 09:32:00,
2014-04-18 02:33:00,54.0,38.1,30.01,NNW,343,2.9,2.9,55,-99.99,,,-99.99,meteobridge,2014-04-18 09:33:00,
2014-04-18 02:34:00,54.0,39.0,30.01,NNW,343,0.0,2.9,57,-99.99,,,-99.99,meteobridge,2014-04-18 09:34:00,
2014-04-18 02:35:00,54.0,39.0,30.01,NNW,343,0.0,2.0,57,-99.99,,,-99.99,meteobridge,2014-04-18 09:35:00,
2014-04-18 02:37:00,53.8,38.8,30.02,NNW,343,0.9,2.0,57,-99.99,,,-99.99,meteobridge,2014-04-18 09:37:00,
2014-04-18 02:40:00,53.6,39.6,30.02,NNW,343,0.9,2.9,59,-99.99,,,-99.99,meteobridge,2014-04-18 09:40:00,
2014-04-18 02:41:00,53.6,39.6,30.02,North,349,0.9,2.9,59,-99.99,,,-99.99,meteobridge,2014-04-18 09:41:00,
2014-04-18 02:43:00,53.4,39.9,30.02,NNW,343,0.0,0.9,60,-99.99,,,-99.99,meteobridge,2014-04-18 09:43:00,
2014-04-18 02:44:00,53.4,39.9,30.02,NNW,346,0.9,2.0,60,-99.99,,,-99.99,meteobridge,2014-04-18 09:44:00,
2014-04-18 02:45:00,53.4,39.9,30.02,North,352,0.9,2.0,60,-99.99,,,-99.99,meteobridge,2014-04-18 09:45:00,
2014-04-18 02:46:00,53.4,39.9,30.02,NNW,347,0.0,4.9,60,-99.99,,,-99.99,meteobridge,2014-04-18 09:46:00,
2014-04-18 02:47:00,53.4,39.9,30.02,NNW,347,0.0,4.9,60,-99.99,,,-99.99,meteobridge,2014-04-18 09:47:00,
2014-04-18 02:49:00,53.2,40.1,30.02,NNW,347,2.0,2.0,61,-99.99,,,-99.99,meteobridge,2014-04-18 09:49:00,
2014-04-18 02:51:00,53.2,40.1,30.02,North,359,6.0,6.0,61,-99.99,,,-99.99,meteobridge,2014-04-18 09:51:00,
2014-04-18 02:52:00,53.2,40.1,30.02,North,350,2.0,6.0,61,-99.99,,,-99.99,meteobridge,2014-04-18 09:52:00,
2014-04-18 02:55:00,53.2,40.6,30.02,North,354,4.0,6.9,62,-99.99,,,-99.99,meteobridge,2014-04-18 09:55:00,
2014-04-18 02:56:00,53.1,40.5,30.02,North,354,0.9,6.0,62,-99.99,,,-99.99,meteobridge,2014-04-18 09:56:00,
2014-04-18 02:57:00,53.1,40.5,30.02,North,352,4.9,4.9,62,-99.99,,,-99.99,meteobridge,2014-04-18 09:57:00,
2014-04-18 02:58:00,53.2,40.6,30.02,North,350,2.0,6.0,62,-99.99,,,-99.99,meteobridge,2014-04-18 09:58:00,
2014-04-18 03:01:00,53.1,40.5,30.02,North,357,2.0,2.9,62,-99.99,,,-99.99,meteobridge,2014-04-18 10:01:00,
2014-04-18 03:02:00,53.1,40.5,30.02,North,359,2.9,4.9,62,-99.99,,,-99.99,meteobridge,2014-04-18 10:02:00,
2014-04-18 03:03:00,52.9,40.3,30.02,NNW,339,2.9,6.0,62,-99.99,,,-99.99,meteobridge,2014-04-18 10:03:00,
2014-04-18 03:06:00,52.9,40.6,30.03,North,0,4.0,6.9,63,-99.99,,,-99.99,meteobridge,2014-04-18 10:06:00,
2014-04-18 03:07:00,52.7,40.5,30.03,NE,44,2.9,6.9,63,-99.99,,,-99.99,meteobridge,2014-04-18 10:07:00,
2014-04-18 03:08:00,52.9,41.0,30.03,North,359,2.9,6.9,64,-99.99,,,-99.99,meteobridge,2014-04-18 10:08:00,
2014-04-18 03:09:00,52.9,41.0,30.03,North,357,2.9,6.9,64,-99.99,,,-99.99,meteobridge,2014-04-18 10:09:00,
2014-04-18 03:10:00,52.5,40.6,30.03,North,0,4.0,6.9,64,-99.99,,,-99.99,meteobridge,2014-04-18 10:10:00,
2014-04-18 03:13:00,52.3,40.5,30.03,North,352,2.0,4.9,64,-99.99,,,-99.99,meteobridge,2014-04-18 10:13:00,
2014-04-18 03:14:00,52.3,40.5,30.03,North,0,0.9,4.9,64,-99.99,,,-99.99,meteobridge,2014-04-18 10:14:00,
2014-04-18 03:15:00,52.3,40.5,30.03,North,359,0.0,2.9,64,-99.99,,,-99.99,meteobridge,2014-04-18 10:15:00,
2014-04-18 03:18:00,52.5,40.6,30.03,North,0,0.0,0.0,64,-99.99,,,-99.99,meteobridge,2014-04-18 10:18:00,
2014-04-18 03:19:00,52.5,40.6,30.03,North,356,0.9,0.9,64,-99.99,,,-99.99,meteobridge,2014-04-18 10:19:00,
2014-04-18 03:21:00,52.3,40.5,30.03,North,353,0.0,2.0,64,-99.99,,,-99.99,meteobridge,2014-04-18 10:21:00,
2014-04-18 03:23:00,52.3,40.5,30.03,North,352,0.0,2.0,64,-99.99,,,-99.99,meteobridge,2014-04-18 10:23:00,
2014-04-18 03:24:00,52.3,40.5,30.03,North,352,0.0,2.0,64,-99.99,,,-99.99,meteobridge,2014-04-18 10:24:00,
2014-04-18 03:25:00,52.3,40.5,30.03,North,353,0.0,0.0,64,-99.99,,,-99.99,meteobridge,2014-04-18 10:25:00,
2014-04-18 03:26:00,52.2,40.3,30.03,North,353,0.0,0.0,64,-99.99,,,-99.99,meteobridge,2014-04-18 10:26:00,
2014-04-18 03:28:00,52.3,40.5,30.03,North,353,0.0,0.0,64,-99.99,,,-99.99,meteobridge,2014-04-18 10:28:00,
2014-04-18 03:31:00,52.3,40.5,30.03,North,353,0.0,0.0,64,-99.99,,,-99.99,meteobridge,2014-04-18 10:31:00,
2014-04-18 03:32:00,52.3,40.5,30.03,North,350,0.9,2.9,64,-99.99,,,-99.99,meteobridge,2014-04-18 10:32:00,
2014-04-18 03:33:00,52.2,40.8,30.03,North,350,0.9,2.0,65,-99.99,,,-99.99,meteobridge,2014-04-18 10:33:00,
2014-04-18 03:36:00,52.0,41.0,30.03,North,350,2.0,2.9,66,-99.99,,,-99.99,meteobridge,2014-04-18 10:36:00,
2014-04-18 03:37:00,52.0,41.4,30.06,North,350,0.0,2.0,67,-99.99,,,-99.99,meteobridge,2014-04-18 10:37:00,
2014-04-18 03:38:00,51.8,40.8,30.06,North,350,0.0,2.0,66,-99.99,,,-99.99,meteobridge,2014-04-18 10:38:00,
2014-04-18 03:39:00,51.8,40.8,30.06,North,350,0.0,0.0,66,-99.99,,,-99.99,meteobridge,2014-04-18 10:39:00,
2014-04-18 03:43:00,52.0,40.6,30.06,North,350,0.0,0.0,65,-99.99,,,-99.99,meteobridge,2014-04-18 10:43:00,
2014-04-18 03:44:00,51.8,40.5,30.06,North,350,0.0,0.0,65,-99.99,,,-99.99,meteobridge,2014-04-18 10:44:00,
2014-04-18 03:45:00,52.0,40.6,30.06,North,350,0.0,0.0,65,-99.99,,,-99.99,meteobridge,2014-04-18 10:45:00,
2014-04-18 03:48:00,51.8,40.8,30.06,North,350,0.0,0.9,66,-99.99,,,-99.99,meteobridge,2014-04-18 10:48:00,
2014-04-18 03:49:00,51.6,40.6,30.06,North,350,0.0,0.9,66,-99.99,,,-99.99,meteobridge,2014-04-18 10:49:00,
2014-04-18 03:50:00,52.0,41.0,30.06,North,350,0.0,0.9,66,-99.99,,,-99.99,meteobridge,2014-04-18 10:50:00,
2014-04-18 03:54:00,51.6,40.6,30.05,North,349,0.9,2.9,66,-99.99,,,-99.99,meteobridge,2014-04-18 10:54:00,
2014-04-18 03:55:00,51.6,40.6,30.05,North,349,0.9,2.9,66,-99.99,,,-99.99,meteobridge,2014-04-18 10:55:00,
2014-04-18 03:56:00,51.4,40.5,30.05,North,349,0.0,2.0,66,-99.99,,,-99.99,meteobridge,2014-04-18 10:56:00,
2014-04-18 03:57:00,51.4,40.5,30.05,North,356,2.0,2.0,66,-99.99,,,-99.99,meteobridge,2014-04-18 10:57:00,
2014-04-18 04:00:00,51.4,40.8,30.05,North,356,0.9,4.9,67,-99.99,,,-99.99,meteobridge,2014-04-18 11:00:00,
2014-04-18 04:01:00,51.4,40.8,30.05,NNW,347,2.0,4.9,67,-99.99,,,-99.99,meteobridge,2014-04-18 11:01:00,
2014-04-18 04:02:00,51.3,40.6,30.05,North,349,0.9,2.0,67,-99.99,,,-99.99,meteobridge,2014-04-18 11:02:00,
2014-04-18 04:05:00,51.3,40.6,30.05,NNW,339,2.0,4.9,67,-99.99,,,-99.99,meteobridge,2014-04-18 11:05:00,
2014-04-18 04:06:00,51.3,40.6,30.06,North,0,2.9,4.9,67,-99.99,,,-99.99,meteobridge,2014-04-18 11:06:00,
2014-04-18 04:07:00,51.3,40.6,30.06,North,0,2.9,4.9,67,-99.99,,,-99.99,meteobridge,2014-04-18 11:07:00,
2014-04-18 04:10:00,51.1,40.5,30.06,NNW,342,4.0,6.9,67,-99.99,,,-99.99,meteobridge,2014-04-18 11:10:00,
2014-04-18 04:11:00,50.9,40.3,30.06,NNW,335,6.0,6.9,67,-99.99,,,-99.99,meteobridge,2014-04-18 11:11:00,
2014-04-18 04:12:00,50.9,40.3,30.06,NW,313,4.0,6.9,67,-99.99,,,-99.99,meteobridge,2014-04-18 11:12:00,
2014-04-18 04:14:00,50.7,40.1,30.06,NNW,339,4.0,6.0,67,-99.99,,,-99.99,meteobridge,2014-04-18 11:14:00,
2014-04-18 04:15:00,50.5,39.9,30.06,NNW,336,6.0,6.0,67,-99.99,,,-99.99,meteobridge,2014-04-18 11:15:00,
2014-04-18 04:16:00,50.5,39.9,30.06,North,356,4.0,6.0,67,-99.99,,,-99.99,meteobridge,2014-04-18 11:16:00,
2014-04-18 04:17:00,50.5,39.9,30.06,NW,313,2.9,6.9,67,-99.99,,,-99.99,meteobridge,2014-04-18 11:17:00,
2014-04-18 04:18:00,50.5,39.9,30.06,NW,312,4.9,6.9,67,-99.99,,,-99.99,meteobridge,2014-04-18 11:18:00,
2014-04-18 04:19:00,50.4,39.7,30.06,North,354,2.0,4.9,67,-99.99,,,-99.99,meteobridge,2014-04-18 11:19:00,
2014-04-18 04:20:00,50.4,39.7,30.06,North,356,2.0,6.9,67,-99.99,,,-99.99,meteobridge,2014-04-18 11:20:00,
2014-04-18 04:22:00,50.4,39.7,30.07,North,354,2.9,6.9,67,-99.99,,,-99.99,meteobridge,2014-04-18 11:22:00,
2014-04-18 04:23:00,50.2,39.6,30.07,NNW,332,4.9,10.1,67,-99.99,,,-99.99,meteobridge,2014-04-18 11:23:00,
2014-04-18 04:24:00,50.2,39.6,30.07,NNW,330,2.9,6.9,67,-99.99,,,-99.99,meteobridge,2014-04-18 11:24:00,
2014-04-18 04:25:00,50.2,39.6,30.07,North,0,0.9,6.0,67,-99.99,,,-99.99,meteobridge,2014-04-18 11:25:00,
2014-04-18 04:27:00,49.8,39.7,30.07,NNW,343,6.0,6.9,68,-99.99,,,-99.99,meteobridge,2014-04-18 11:27:00,
2014-04-18 04:28:00,49.8,39.4,30.07,NNW,342,6.0,6.9,67,-99.99,,,-99.99,meteobridge,2014-04-18 11:28:00,
2014-04-18 04:29:00,49.8,39.4,30.07,North,356,0.9,10.1,67,-99.99,,,-99.99,meteobridge,2014-04-18 11:29:00,
2014-04-18 04:30:00,49.8,39.7,30.07,North,356,2.9,10.1,68,-99.99,,,-99.99,meteobridge,2014-04-18 11:30:00,
2014-04-18 04:32:00,49.8,39.7,30.07,NW,315,2.9,11.0,68,-99.99,,,-99.99,meteobridge,2014-04-18 11:32:00,
2014-04-18 04:33:00,49.6,39.6,30.07,NW,326,2.0,8.1,68,-99.99,,,-99.99,meteobridge,2014-04-18 11:33:00,
2014-04-18 04:34:00,49.6,39.6,30.07,NNW,342,4.9,6.0,68,-99.99,,,-99.99,meteobridge,2014-04-18 11:34:00,
2014-04-18 04:35:00,49.6,39.6,30.07,NNW,335,2.0,6.0,68,-99.99,,,-99.99,meteobridge,2014-04-18 11:35:00,
2014-04-18 04:37:00,49.5,39.4,30.09,North,0,4.9,6.0,68,-99.99,,,-99.99,meteobridge,2014-04-18 11:37:00,
2014-04-18 04:39:00,49.5,39.4,30.09,North,0,2.0,6.0,68,-99.99,,,-99.99,meteobridge,2014-04-18 11:39:00,
2014-04-18 04:41:00,49.5,39.4,30.09,ESE,112,4.9,4.9,68,-99.99,,,-99.99,meteobridge,2014-04-18 11:41:00,
2014-04-18 04:42:00,49.5,39.4,30.09,NNE,30,2.0,4.9,68,-99.99,,,-99.99,meteobridge,2014-04-18 11:42:00,
2014-04-18 04:44:00,49.5,39.4,30.09,SE,143,0.9,4.0,68,-99.99,,,-99.99,meteobridge,2014-04-18 11:44:00,
2014-04-18 04:45:00,49.5,39.4,30.09,NE,51,0.0,2.0,68,-99.99,,,-99.99,meteobridge,2014-04-18 11:45:00,
2014-04-18 04:46:00,49.5,39.4,30.09,NE,52,0.0,2.0,68,-99.99,,,-99.99,meteobridge,2014-04-18 11:46:00,
2014-04-18 04:47:00,49.5,39.4,30.09,NE,47,0.0,2.0,68,-99.99,,,-99.99,meteobridge,2014-04-18 11:47:00,
2014-04-18 04:49:00,49.5,39.4,30.09,North,6,2.0,2.0,68,-99.99,,,-99.99,meteobridge,2014-04-18 11:49:00,
2014-04-18 04:50:00,49.5,39.4,30.09,North,8,2.0,2.0,68,-99.99,,,-99.99,meteobridge,2014-04-18 11:50:00,
2014-04-18 04:51:00,49.5,39.0,30.09,North,8,2.0,2.9,67,-99.99,,,-99.99,meteobridge,2014-04-18 11:51:00,
2014-04-18 04:52:00,49.5,39.4,30.11,North,7,0.0,2.9,68,-99.99,,,-99.99,meteobridge,2014-04-18 11:52:00,
2014-04-18 04:53:00,49.5,39.0,30.11,North,7,0.0,2.9,67,-99.99,,,-99.99,meteobridge,2014-04-18 11:53:00,
2014-04-18 04:55:00,49.5,39.0,30.11,North,7,0.0,0.0,67,-99.99,,,-99.99,meteobridge,2014-04-18 11:55:00,
2014-04-18 04:57:00,49.5,39.4,30.11,North,7,0.0,0.0,68,-99.99,,,-99.99,meteobridge,2014-04-18 11:57:00,
2014-04-18 04:58:00,49.3,38.8,30.11,North,7,0.0,0.0,67,-99.99,,,-99.99,meteobridge,2014-04-18 11:58:00,
2014-04-18 04:59:00,49.5,39.0,30.11,North,7,0.0,0.0,67,-99.99,,,-99.99,meteobridge,2014-04-18 11:59:00,
2014-04-18 05:00:00,49.5,39.0,30.11,SSE,151,0.9,2.0,67,-99.99,,,-99.99,meteobridge,2014-04-18 12:00:00,
2014-04-18 05:02:00,49.3,39.2,30.11,East,100,0.0,0.9,68,-99.99,,,-99.99,meteobridge,2014-04-18 12:02:00,
2014-04-18 05:03:00,49.3,39.2,30.11,East,96,0.0,0.0,68,-99.99,,,-99.99,meteobridge,2014-04-18 12:03:00,
2014-04-18 05:04:00,49.3,39.2,30.11,ENE,73,0.0,0.0,68,-99.99,,,-99.99,meteobridge,2014-04-18 12:04:00,
2014-04-18 05:05:00,49.3,39.2,30.11,ENE,71,0.0,0.0,68,-99.99,,,-99.99,meteobridge,2014-04-18 12:05:00,
2014-04-18 05:07:00,49.3,39.2,30.11,NE,35,0.0,0.0,68,-99.99,,,-99.99,meteobridge,2014-04-18 12:07:00,
2014-04-18 05:08:00,49.5,39.4,30.11,NE,37,0.0,0.0,68,-99.99,,,-99.99,meteobridge,2014-04-18 12:08:00,
2014-04-18 05:09:00,49.1,39.0,30.11,NE,41,0.0,0.0,68,-99.99,,,-99.99,meteobridge,2014-04-18 12:09:00,
2014-04-18 05:11:00,49.1,39.0,30.11,NE,35,0.0,0.0,68,-99.99,,,-99.99,meteobridge,2014-04-18 12:11:00,
2014-04-18 05:12:00,49.1,39.0,30.11,NE,37,0.0,0.0,68,-99.99,,,-99.99,meteobridge,2014-04-18 12:12:00,
2014-04-18 05:13:00,49.1,39.0,30.11,NE,42,0.0,0.0,68,-99.99,,,-99.99,meteobridge,2014-04-18 12:13:00,
2014-04-18 05:14:00,49.3,39.6,30.11,NE,37,0.0,0.0,69,-99.99,,,-99.99,meteobridge,2014-04-18 12:14:00,
2014-04-18 05:16:00,49.1,39.4,30.11,NE,35,0.0,0.0,69,-99.99,,,-99.99,meteobridge,2014-04-18 12:16:00,
2014-04-18 05:17:00,48.9,39.2,30.11,NE,37,0.0,0.0,69,-99.99,,,-99.99,meteobridge,2014-04-18 12:17:00,
2014-04-18 05:19:00,48.7,39.0,30.11,NE,42,0.0,0.0,69,-99.99,,,-99.99,meteobridge,2014-04-18 12:19:00,
2014-04-18 05:21:00,48.9,39.2,30.11,ESE,113,0.0,0.9,69,-99.99,,,-99.99,meteobridge,2014-04-18 12:21:00,
2014-04-18 05:22:00,48.7,39.0,30.11,ESE,109,0.0,0.9,69,-99.99,,,-99.99,meteobridge,2014-04-18 12:22:00,
2014-04-18 05:24:00,48.7,39.4,30.11,ESE,112,0.0,0.0,70,-99.99,,,-99.99,meteobridge,2014-04-18 12:24:00,
2014-04-18 05:25:00,48.7,39.4,30.11,ESE,104,0.0,0.0,70,-99.99,,,-99.99,meteobridge,2014-04-18 12:25:00,
2014-04-18 05:26:00,48.7,39.4,30.11,ESE,104,0.0,0.0,70,-99.99,,,-99.99,meteobridge,2014-04-18 12:26:00,
2014-04-18 05:27:00,48.7,39.0,30.11,ESE,103,0.0,0.0,69,-99.99,,,-99.99,meteobridge,2014-04-18 12:27:00,
2014-04-18 05:29:00,48.6,39.2,30.11,ESE,121,0.0,0.0,70,-99.99,,,-99.99,meteobridge,2014-04-18 12:29:00,
2014-04-18 05:30:00,48.6,39.2,30.11,NE,54,0.0,0.0,70,-99.99,,,-99.99,meteobridge,2014-04-18 12:30:00,
2014-04-18 05:31:00,48.6,39.2,30.11,East,93,0.0,0.0,70,-99.99,,,-99.99,meteobridge,2014-04-18 12:31:00,
2014-04-18 05:33:00,48.6,39.2,30.11,NNE,28,0.0,0.0,70,-99.99,,,-99.99,meteobridge,2014-04-18 12:33:00,
2014-04-18 05:35:00,48.4,39.0,30.11,North,7,0.0,0.0,70,-99.99,,,-99.99,meteobridge,2014-04-18 12:35:00,
2014-04-18 05:36:00,48.4,38.7,30.11,North,7,0.0,0.0,69,-99.99,,,-99.99,meteobridge,2014-04-18 12:36:00,
2014-04-18 05:38:00,48.4,39.0,30.13,North,7,0.0,0.0,70,-99.99,,,-99.99,meteobridge,2014-04-18 12:38:00,
2014-04-18 05:40:00,48.2,38.5,30.13,North,7,0.0,0.0,69,-99.99,,,-99.99,meteobridge,2014-04-18 12:40:00,
2014-04-18 05:41:00,48.2,38.5,30.13,North,7,0.0,0.0,69,-99.99,,,-99.99,meteobridge,2014-04-18 12:41:00,
2014-04-18 05:43:00,48.4,38.7,30.13,North,7,0.0,0.0,69,-99.99,,,-99.99,meteobridge,2014-04-18 12:43:00,
2014-04-18 05:45:00,48.0,38.3,30.13,North,7,0.9,2.0,69,-99.99,,,-99.99,meteobridge,2014-04-18 12:45:00,
2014-04-18 05:46:00,47.8,38.1,30.13,SE,131,0.9,2.0,69,-99.99,,,-99.99,meteobridge,2014-04-18 12:46:00,
2014-04-18 05:47:00,48.0,38.3,30.13,ESE,117,0.0,2.0,69,-99.99,,,-99.99,meteobridge,2014-04-18 12:47:00,
2014-04-18 05:48:00,47.8,38.5,30.13,ESE,119,0.9,2.0,70,-99.99,,,-99.99,meteobridge,2014-04-18 12:48:00,
2014-04-18 05:51:00,47.8,38.5,30.13,ESE,120,0.0,2.0,70,-99.99,,,-99.99,meteobridge,2014-04-18 12:51:00,
2014-04-18 05:52:00,47.8,38.5,30.14,ESE,113,0.0,2.0,70,-99.99,,,-99.99,meteobridge,2014-04-18 12:52:00,
2014-04-18 05:53:00,47.7,37.9,30.14,ENE,71,0.0,2.0,69,-99.99,,,-99.99,meteobridge,2014-04-18 12:53:00,
2014-04-18 05:57:00,47.7,37.9,30.14,East,93,0.0,0.0,69,-99.99,,,-99.99,meteobridge,2014-04-18 12:57:00,
2014-04-18 05:58:00,47.7,37.9,30.14,East,86,0.0,0.9,69,-99.99,,,-99.99,meteobridge,2014-04-18 12:58:00,
2014-04-18 05:59:00,47.7,37.9,30.14,East,86,0.0,0.9,69,-99.99,,,-99.99,meteobridge,2014-04-18 12:59:00,
2014-04-18 06:02:00,47.5,37.8,30.14,East,85,0.0,2.0,69,-99.99,,,-99.99,meteobridge,2014-04-18 13:02:00,
2014-04-18 06:03:00,47.5,37.8,30.14,ESE,103,0.0,0.0,69,-99.99,,,-99.99,meteobridge,2014-04-18 13:03:00,
2014-04-18 06:04:00,47.3,37.6,30.14,ESE,103,0.0,0.0,69,-99.99,,,-99.99,meteobridge,2014-04-18 13:04:00,
2014-04-18 06:05:00,47.5,37.8,30.14,ESE,104,0.0,0.0,69,-99.99,,,-99.99,meteobridge,2014-04-18 13:05:00,
2014-04-18 06:06:00,47.3,37.6,30.14,ESE,102,0.0,0.0,69,-99.99,,,-99.99,meteobridge,2014-04-18 13:06:00,
2014-04-18 06:07:00,47.1,37.8,30.15,ESE,104,0.0,0.0,70,-99.99,,,-99.99,meteobridge,2014-04-18 13:07:00,
2014-04-18 06:08:00,47.1,37.8,30.15,ESE,104,0.0,0.0,70,-99.99,,,-99.99,meteobridge,2014-04-18 13:08:00,
2014-04-18 06:10:00,47.1,37.8,30.15,ESE,106,0.0,0.0,70,-99.99,,,-99.99,meteobridge,2014-04-18 13:10:00,
2014-04-18 06:11:00,47.1,37.8,30.15,ESE,109,0.0,0.0,70,-99.99,,,-99.99,meteobridge,2014-04-18 13:11:00,
2014-04-18 06:12:00,47.1,37.8,30.15,ESE,106,0.0,0.0,70,-99.99,,,-99.99,meteobridge,2014-04-18 13:12:00,
2014-04-18 06:14:00,47.1,37.8,30.15,ESE,112,0.0,0.0,70,-99.99,,,-99.99,meteobridge,2014-04-18 13:14:00,
2014-04-18 06:15:00,47.1,37.8,30.15,ESE,109,0.0,0.0,70,-99.99,,,-99.99,meteobridge,2014-04-18 13:15:00,
2014-04-18 06:16:00,46.9,37.6,30.15,ESE,110,0.0,0.0,70,-99.99,,,-99.99,meteobridge,2014-04-18 13:16:00,
2014-04-18 06:17:00,46.9,37.6,30.15,ESE,109,0.0,0.0,70,-99.99,,,-99.99,meteobridge,2014-04-18 13:17:00,
2014-04-18 06:18:00,46.9,37.6,30.15,ESE,107,0.0,0.0,70,-99.99,,,-99.99,meteobridge,2014-04-18 13:18:00,
2014-04-18 06:19:00,46.9,37.6,30.15,ESE,107,0.0,0.0,70,-99.99,,,-99.99,meteobridge,2014-04-18 13:19:00,
2014-04-18 06:21:00,46.9,37.6,30.15,SE,124,0.0,0.0,70,-99.99,,,-99.99,meteobridge,2014-04-18 13:21:00,
2014-04-18 06:22:00,46.8,37.9,30.16,SE,128,0.0,0.9,71,-99.99,,,-99.99,meteobridge,2014-04-18 13:22:00,
2014-04-18 06:23:00,46.8,37.9,30.16,SE,128,0.0,0.9,71,-99.99,,,-99.99,meteobridge,2014-04-18 13:23:00,
2014-04-18 06:24:00,46.8,37.9,30.16,ESE,106,0.0,0.9,71,-99.99,,,-99.99,meteobridge,2014-04-18 13:24:00,
2014-04-18 06:27:00,46.8,37.9,30.16,ENE,73,2.0,2.0,71,-99.99,,,-99.99,meteobridge,2014-04-18 13:27:00,
2014-04-18 06:28:00,46.8,37.9,30.16,SE,140,2.0,2.9,71,-99.99,,,-99.99,meteobridge,2014-04-18 13:28:00,
2014-04-18 06:29:00,46.8,37.9,30.16,South,178,0.0,2.9,71,-99.99,,,-99.99,meteobridge,2014-04-18 13:29:00,
2014-04-18 06:30:00,46.6,37.8,30.16,SSE,167,2.0,4.0,71,-99.99,,,-99.99,meteobridge,2014-04-18 13:30:00,
2014-04-18 06:33:00,46.6,37.4,30.16,ESE,106,2.0,2.0,70,-99.99,,,-99.99,meteobridge,2014-04-18 13:33:00,
2014-04-18 06:35:00,46.4,37.2,30.16,East,95,0.9,2.0,70,-99.99,,,-99.99,meteobridge,2014-04-18 13:35:00,
2014-04-18 06:36:00,46.4,37.2,30.16,ESE,110,0.0,2.0,70,-99.99,,,-99.99,meteobridge,2014-04-18 13:36:00,
2014-04-18 06:38:00,46.6,37.4,30.17,ESE,109,0.0,0.0,70,-99.99,,,-99.99,meteobridge,2014-04-18 13:38:00,
2014-04-18 06:41:00,46.6,37.4,30.17,ESE,106,0.0,0.0,70,-99.99,,,-99.99,meteobridge,2014-04-18 13:41:00,
2014-04-18 06:42:00,46.6,37.4,30.17,East,99,0.0,0.0,70,-99.99,,,-99.99,meteobridge,2014-04-18 13:42:00,
2014-04-18 06:43:00,46.6,37.4,30.17,ESE,112,0.0,0.0,70,-99.99,,,-99.99,meteobridge,2014-04-18 13:43:00,
2014-04-18 06:44:00,46.6,37.8,30.17,ESE,109,0.0,0.0,71,-99.99,,,-99.99,meteobridge,2014-04-18 13:44:00,
2014-04-18 06:47:00,46.6,37.8,30.17,ESE,112,0.0,0.0,71,-99.99,,,-99.99,meteobridge,2014-04-18 13:47:00,
2014-04-18 06:48:00,46.6,37.8,30.17,ESE,113,0.0,0.0,71,-99.99,,,-99.99,meteobridge,2014-04-18 13:48:00,
2014-04-18 06:49:00,46.4,37.6,30.17,ESE,112,0.9,0.9,71,-99.99,,,-99.99,meteobridge,2014-04-18 13:49:00,
2014-04-18 06:50:00,46.6,38.1,30.17,ESE,113,0.9,2.0,72,-99.99,,,-99.99,meteobridge,2014-04-18 13:50:00,
2014-04-18 06:52:00,46.8,38.3,30.19,East,100,0.9,2.9,72,-99.99,,,-99.99,meteobridge,2014-04-18 13:52:00,
2014-04-18 06:53:00,46.6,37.8,30.19,ESE,109,0.0,0.9,71,-99.99,,,-99.99,meteobridge,2014-04-18 13:53:00,
2014-04-18 06:54:00,46.6,37.8,30.19,ESE,106,0.0,0.9,71,-99.99,,,-99.99,meteobridge,2014-04-18 13:54:00,
2014-04-18 06:55:00,46.8,37.9,30.19,East,96,0.0,0.9,71,-99.99,,,-99.99,meteobridge,2014-04-18 13:55:00,
2014-04-18 06:56:00,46.8,37.9,30.19,East,85,0.0,0.0,71,-99.99,,,-99.99,meteobridge,2014-04-18 13:56:00,
2014-04-18 06:57:00,46.8,37.9,30.19,East,88,0.0,0.0,71,-99.99,,,-99.99,meteobridge,2014-04-18 13:57:00,
2014-04-18 06:58:00,46.8,37.9,30.19,East,86,0.0,0.0,71,-99.99,,,-99.99,meteobridge,2014-04-18 13:58:00,
2014-04-18 06:59:00,46.9,38.1,30.19,East,89,0.0,0.0,71,-99.99,,,-99.99,meteobridge,2014-04-18 13:59:00,
2014-04-18 07:02:00,46.9,37.6,30.19,East,88,0.0,0.0,70,-99.99,,,-99.99,meteobridge,2014-04-18 14:02:00,
2014-04-18 07:03:00,47.1,37.8,30.19,East,92,0.0,0.0,70,-99.99,,,-99.99,meteobridge,2014-04-18 14:03:00,
2014-04-18 07:04:00,47.1,37.8,30.19,East,85,0.0,0.0,70,-99.99,,,-99.99,meteobridge,2014-04-18 14:04:00,
2014-04-18 07:06:00,47.1,37.8,30.19,East,83,0.0,0.0,70,-99.99,,,-99.99,meteobridge,2014-04-18 14:06:00,
2014-04-18 07:07:00,47.1,37.8,30.18,East,83,0.0,0.0,70,-99.99,,,-99.99,meteobridge,2014-04-18 14:07:00,
2014-04-18 07:08:00,47.1,38.1,30.18,East,86,0.0,0.0,71,-99.99,,,-99.99,meteobridge,2014-04-18 14:08:00,
2014-04-18 07:09:00,47.3,37.9,30.18,East,85,0.0,0.0,70,-99.99,,,-99.99,meteobridge,2014-04-18 14:09:00,
2014-04-18 07:10:00,47.5,38.1,30.18,North,7,0.9,2.0,70,-99.99,,,-99.99,meteobridge,2014-04-18 14:10:00,
2014-04-18 07:11:00,47.5,38.1,30.18,North,6,0.9,2.0,70,-99.99,,,-99.99,meteobridge,2014-04-18 14:11:00,
2014-04-18 07:12:00,47.1,37.8,30.18,North,6,0.0,2.0,70,-99.99,,,-99.99,meteobridge,2014-04-18 14:12:00,
2014-04-18 07:13:00,47.1,37.8,30.18,North,6,0.0,2.0,70,-99.99,,,-99.99,meteobridge,2014-04-18 14:13:00,
2014-04-18 07:14:00,47.3,37.9,30.18,NNE,16,0.9,2.0,70,-99.99,,,-99.99,meteobridge,2014-04-18 14:14:00,
2014-04-18 07:15:00,47.5,38.1,30.18,East,88,2.0,2.0,70,-99.99,,,-99.99,meteobridge,2014-04-18 14:15:00,
2014-04-18 07:16:00,47.5,38.1,30.18,South,172,0.0,2.0,70,-99.99,,,-99.99,meteobridge,2014-04-18 14:16:00,
2014-04-18 07:17:00,47.5,38.1,30.18,SSE,164,0.0,2.0,70,-99.99,,,-99.99,meteobridge,2014-04-18 14:17:00,
2014-04-18 07:18:00,47.5,38.1,30.18,SSE,160,0.0,0.0,70,-99.99,,,-99.99,meteobridge,2014-04-18 14:18:00,
2014-04-18 07:19:00,47.5,37.8,30.18,East,96,0.0,0.0,69,-99.99,,,-99.99,meteobridge,2014-04-18 14:19:00,
2014-04-18 07:20:00,47.5,38.1,30.18,East,96,0.0,0.0,70,-99.99,,,-99.99,meteobridge,2014-04-18 14:20:00,
2014-04-18 07:22:00,47.5,37.8,30.19,ESE,120,0.9,2.0,69,-99.99,,,-99.99,meteobridge,2014-04-18 14:22:00,
2014-04-18 07:23:00,47.7,37.9,30.19,ESE,102,0.9,2.0,69,-99.99,,,-99.99,meteobridge,2014-04-18 14:23:00,
2014-04-18 07:25:00,47.8,38.5,30.19,East,86,0.0,2.0,70,-99.99,,,-99.99,meteobridge,2014-04-18 14:25:00,
2014-04-18 07:26:00,47.8,38.5,30.19,SSE,147,0.0,0.0,70,-99.99,,,-99.99,meteobridge,2014-04-18 14:26:00,
2014-04-18 07:27:00,48.2,38.8,30.19,East,97,0.0,0.0,70,-99.99,,,-99.99,meteobridge,2014-04-18 14:27:00,
2014-04-18 07:28:00,48.2,38.1,30.19,East,79,0.0,0.0,68,-99.99,,,-99.99,meteobridge,2014-04-18 14:28:00,
2014-04-18 07:29:00,48.4,38.3,30.19,East,79,0.9,0.9,68,-99.99,,,-99.99,meteobridge,2014-04-18 14:29:00,
2014-04-18 07:30:00,48.6,38.5,30.19,ENE,72,0.0,0.9,68,-99.99,,,-99.99,meteobridge,2014-04-18 14:30:00,
2014-04-18 07:31:00,48.6,38.1,30.19,ENE,75,0.0,0.9,67,-99.99,,,-99.99,meteobridge,2014-04-18 14:31:00,
2014-04-18 07:32:00,48.7,38.3,30.19,ENE,69,0.0,0.9,67,-99.99,,,-99.99,meteobridge,2014-04-18 14:32:00,
2014-04-18 07:33:00,48.7,38.3,30.19,ENE,73,0.0,0.9,67,-99.99,,,-99.99,meteobridge,2014-04-18 14:33:00,
2014-04-18 07:34:00,48.7,38.3,30.19,ENE,73,0.0,0.9,67,-99.99,,,-99.99,meteobridge,2014-04-18 14:34:00,
2014-04-18 07:36:00,49.1,38.7,30.19,SE,145,0.0,0.0,67,-99.99,,,-99.99,meteobridge,2014-04-18 14:36:00,
2014-04-18 07:37:00,49.3,38.8,30.20,SSE,147,0.0,0.0,67,-99.99,,,-99.99,meteobridge,2014-04-18 14:37:00,
2014-04-18 07:38:00,49.5,38.7,30.20,SE,144,0.0,2.0,66,-99.99,,,-99.99,meteobridge,2014-04-18 14:38:00,
2014-04-18 07:39:00,49.6,38.7,30.20,SSE,157,0.0,0.9,66,-99.99,,,-99.99,meteobridge,2014-04-18 14:39:00,
2014-04-18 07:40:00,49.8,38.5,30.20,SW,232,0.0,0.9,65,-99.99,,,-99.99,meteobridge,2014-04-18 14:40:00,
2014-04-18 07:42:00,50.2,38.8,30.20,East,80,0.9,2.0,65,-99.99,,,-99.99,meteobridge,2014-04-18 14:42:00,
2014-04-18 07:43:00,50.2,38.8,30.20,East,86,0.0,2.0,65,-99.99,,,-99.99,meteobridge,2014-04-18 14:43:00,
2014-04-18 07:44:00,50.2,38.8,30.20,ENE,64,0.9,2.0,65,-99.99,,,-99.99,meteobridge,2014-04-18 14:44:00,
2014-04-18 07:46:00,50.2,38.8,30.20,ENE,78,0.0,2.9,65,-99.99,,,-99.99,meteobridge,2014-04-18 14:46:00,
2014-04-18 07:49:00,50.2,38.8,30.20,East,93,0.0,2.0,65,-99.99,,,-99.99,meteobridge,2014-04-18 14:49:00,
2014-04-18 07:50:00,50.2,38.8,30.20,East,93,0.0,2.0,65,-99.99,,,-99.99,meteobridge,2014-04-18 14:50:00,
2014-04-18 07:52:00,50.2,38.8,30.19,East,97,0.0,0.0,65,-99.99,,,-99.99,meteobridge,2014-04-18 14:52:00,
2014-04-18 07:54:00,50.2,38.8,30.19,SE,127,0.0,2.0,65,-99.99,,,-99.99,meteobridge,2014-04-18 14:54:00,
2014-04-18 07:56:00,50.4,39.0,30.19,East,85,0.9,2.0,65,-99.99,,,-99.99,meteobridge,2014-04-18 14:56:00,
2014-04-18 07:57:00,50.4,38.7,30.19,ENE,66,0.0,2.0,64,-99.99,,,-99.99,meteobridge,2014-04-18 14:57:00,
2014-04-18 07:58:00,50.5,38.8,30.19,ENE,61,0.0,0.9,64,-99.99,,,-99.99,meteobridge,2014-04-18 14:58:00,
2014-04-18 07:59:00,50.5,39.2,30.19,ENE,61,0.0,0.0,65,-99.99,,,-99.99,meteobridge,2014-04-18 14:59:00,
2014-04-18 08:00:00,50.7,39.4,30.19,ENE,64,0.0,0.0,65,-99.99,,,-99.99,meteobridge,2014-04-18 15:00:00,
2014-04-18 08:01:00,50.5,38.8,30.19,East,99,0.0,0.0,64,-99.99,,,-99.99,meteobridge,2014-04-18 15:01:00,
2014-04-18 08:04:00,50.7,39.0,30.19,East,97,0.0,2.0,64,-99.99,,,-99.99,meteobridge,2014-04-18 15:04:00,
2014-04-18 08:05:00,50.7,39.0,30.19,East,95,0.9,2.0,64,-99.99,,,-99.99,meteobridge,2014-04-18 15:05:00,
2014-04-18 08:06:00,50.9,39.2,30.19,ENE,66,0.0,2.0,64,-99.99,,,-99.99,meteobridge,2014-04-18 15:06:00,
2014-04-18 08:09:00,51.3,39.0,30.19,ESE,104,0.0,0.0,63,-99.99,,,-99.99,meteobridge,2014-04-18 15:09:00,
2014-04-18 08:10:00,51.3,39.0,30.19,ESE,113,0.0,0.0,63,-99.99,,,-99.99,meteobridge,2014-04-18 15:10:00,
2014-04-18 08:11:00,51.6,39.4,30.19,ESE,114,0.0,0.0,63,-99.99,,,-99.99,meteobridge,2014-04-18 15:11:00,
2014-04-18 08:15:00,51.8,39.6,30.19,ESE,110,0.0,0.0,63,-99.99,,,-99.99,meteobridge,2014-04-18 15:15:00,
2014-04-18 08:16:00,51.8,39.2,30.19,ESE,107,0.0,0.0,62,-99.99,,,-99.99,meteobridge,2014-04-18 15:16:00,
2014-04-18 08:17:00,51.8,39.2,30.19,ESE,106,0.0,0.0,62,-99.99,,,-99.99,meteobridge,2014-04-18 15:17:00,
2014-04-18 08:18:00,52.0,39.4,30.19,ESE,107,0.0,0.0,62,-99.99,,,-99.99,meteobridge,2014-04-18 15:18:00,
2014-04-18 08:21:00,52.2,39.6,30.19,ESE,107,0.0,0.0,62,-99.99,,,-99.99,meteobridge,2014-04-18 15:21:00,
2014-04-18 08:23:00,52.3,39.7,30.19,ESE,104,0.0,0.0,62,-99.99,,,-99.99,meteobridge,2014-04-18 15:23:00,
2014-04-18 08:24:00,52.3,39.4,30.19,East,99,0.0,0.0,61,-99.99,,,-99.99,meteobridge,2014-04-18 15:24:00,
2014-04-18 08:26:00,52.5,39.4,30.19,East,100,0.0,0.0,61,-99.99,,,-99.99,meteobridge,2014-04-18 15:26:00,
2014-04-18 08:28:00,53.1,39.6,30.19,East,100,0.0,0.0,60,-99.99,,,-99.99,meteobridge,2014-04-18 15:28:00,
2014-04-18 08:29:00,53.1,39.6,30.19,ESE,103,0.0,0.0,60,-99.99,,,-99.99,meteobridge,2014-04-18 15:29:00,
2014-04-18 08:30:00,53.1,39.6,30.19,East,96,0.0,0.0,60,-99.99,,,-99.99,meteobridge,2014-04-18 15:30:00,
2014-04-18 08:31:00,53.2,39.7,30.19,East,100,0.0,0.9,60,-99.99,,,-99.99,meteobridge,2014-04-18 15:31:00,
2014-04-18 08:32:00,53.2,39.2,30.19,ESE,110,0.0,2.0,59,-99.99,,,-99.99,meteobridge,2014-04-18 15:32:00,
2014-04-18 08:34:00,53.4,39.9,30.19,ESE,109,0.0,2.0,60,-99.99,,,-99.99,meteobridge,2014-04-18 15:34:00,
2014-04-18 08:35:00,53.4,39.4,30.19,SSE,158,0.0,2.0,59,-99.99,,,-99.99,meteobridge,2014-04-18 15:35:00,
2014-04-18 08:37:00,53.8,39.7,30.20,NE,48,0.9,2.9,59,-99.99,,,-99.99,meteobridge,2014-04-18 15:37:00,
2014-04-18 08:38:00,54.0,39.6,30.20,NE,42,0.0,2.0,58,-99.99,,,-99.99,meteobridge,2014-04-18 15:38:00,
2014-04-18 08:39:00,54.0,39.9,30.20,NE,41,0.0,0.9,59,-99.99,,,-99.99,meteobridge,2014-04-18 15:39:00,
2014-04-18 08:40:00,54.0,39.9,30.20,NE,41,0.0,0.0,59,-99.99,,,-99.99,meteobridge,2014-04-18 15:40:00,
2014-04-18 08:42:00,54.1,39.2,30.20,East,83,0.0,0.0,57,-99.99,,,-99.99,meteobridge,2014-04-18 15:42:00,
2014-04-18 08:44:00,54.5,39.6,30.20,ENE,73,0.0,2.0,57,-99.99,,,-99.99,meteobridge,2014-04-18 15:44:00,
2014-04-18 08:45:00,54.5,39.6,30.20,SSE,165,0.0,2.0,57,-99.99,,,-99.99,meteobridge,2014-04-18 15:45:00,
2014-04-18 08:48:00,54.9,39.4,30.20,ENE,78,0.0,2.9,56,-99.99,,,-99.99,meteobridge,2014-04-18 15:48:00,
2014-04-18 08:49:00,55.0,39.6,30.20,ENE,73,2.9,2.9,56,-99.99,,,-99.99,meteobridge,2014-04-18 15:49:00,
2014-04-18 08:50:00,55.2,39.7,30.20,ENE,61,2.0,2.9,56,-99.99,,,-99.99,meteobridge,2014-04-18 15:50:00,
2014-04-18 08:51:00,55.6,39.7,30.19,North,3,2.9,2.9,55,-99.99,,,-99.99,meteobridge,2014-04-18 15:51:00,
2014-04-18 08:52:00,55.6,39.7,30.19,North,3,2.0,2.9,55,-99.99,,,-99.99,meteobridge,2014-04-18 15:52:00,
2014-04-18 08:55:00,56.1,39.7,30.19,North,1,0.0,2.0,54,-99.99,,,-99.99,meteobridge,2014-04-18 15:55:00,
2014-04-18 08:56:00,56.3,39.9,30.19,North,1,0.0,2.0,54,-99.99,,,-99.99,meteobridge,2014-04-18 15:56:00,
2014-04-18 08:57:00,56.5,40.1,30.19,North,1,0.0,2.0,54,-99.99,,,-99.99,meteobridge,2014-04-18 15:57:00,
2014-04-18 08:58:00,56.5,40.1,30.19,North,1,0.9,2.9,54,-99.99,,,-99.99,meteobridge,2014-04-18 15:58:00,
2014-04-18 09:01:00,56.7,39.7,30.19,North,1,0.9,2.0,53,-99.99,,,-99.99,meteobridge,2014-04-18 16:01:00,
2014-04-18 09:02:00,57.0,40.1,30.19,North,1,0.0,2.0,53,-99.99,,,-99.99,meteobridge,2014-04-18 16:02:00,
2014-04-18 09:03:00,57.2,40.3,30.19,North,1,0.0,0.9,53,-99.99,,,-99.99,meteobridge,2014-04-18 16:03:00,
2014-04-18 09:05:00,57.0,39.6,30.19,NNW,342,6.0,6.0,52,-99.99,,,-99.99,meteobridge,2014-04-18 16:05:00,
2014-04-18 09:07:00,57.2,40.3,30.18,NNW,340,0.9,0.9,53,-99.99,,,-99.99,meteobridge,2014-04-18 16:07:00,
2014-04-18 09:08:00,57.2,40.3,30.18,NNW,342,2.0,2.9,53,-99.99,,,-99.99,meteobridge,2014-04-18 16:08:00,
2014-04-18 09:09:00,57.2,40.3,30.18,NNW,342,2.0,2.9,53,-99.99,,,-99.99,meteobridge,2014-04-18 16:09:00,
2014-04-18 09:10:00,57.0,40.1,30.18,NNW,340,2.0,4.9,53,-99.99,,,-99.99,meteobridge,2014-04-18 16:10:00,
2014-04-18 09:12:00,57.2,39.7,30.18,NNW,335,2.9,4.9,52,-99.99,,,-99.99,meteobridge,2014-04-18 16:12:00,
2014-04-18 09:13:00,57.2,40.3,30.18,NNW,335,2.9,2.9,53,-99.99,,,-99.99,meteobridge,2014-04-18 16:13:00,
2014-04-18 09:14:00,57.0,39.6,30.18,NNW,332,0.0,4.0,52,-99.99,,,-99.99,meteobridge,2014-04-18 16:14:00,
2014-04-18 09:15:00,57.0,39.6,30.18,NNW,332,0.0,4.0,52,-99.99,,,-99.99,meteobridge,2014-04-18 16:15:00,
2014-04-18 09:16:00,57.0,40.1,30.18,NNW,329,4.0,6.0,53,-99.99,,,-99.99,meteobridge,2014-04-18 16:16:00,
2014-04-18 09:18:00,57.4,39.9,30.18,North,350,2.0,2.0,52,-99.99,,,-99.99,meteobridge,2014-04-18 16:18:00,
2014-04-18 09:19:00,57.6,40.1,30.18,NNW,335,0.9,2.9,52,-99.99,,,-99.99,meteobridge,2014-04-18 16:19:00,